Year,Month,Day,Hour,Minute,Value (Times are PST for temperature in C)
2017,12,19,00,00,4.40
2017,12,19,00,01,4.40
2017,12,19,00,02,4.40
2017,12,19,00,03,4.40
2017,12,19,00,04,4.40
2017,12,19,00,05,4.50
2017,12,19,00,06,4.40
2017,12,19,00,07,4.40
2017,12,19,00,08,4.40
2017,12,19,00,09,4.40
2017,12,19,00,10,4.40
2017,12,19,00,11,4.40
2017,12,19,00,12,4.40
2017,12,19,00,13,4.40
2017,12,19,00,14,4.40
2017,12,19,00,15,4.40
2017,12,19,00,16,4.40
2017,12,19,00,17,4.30
2017,12,19,00,18,4.30
2017,12,19,00,19,4.30
2017,12,19,00,20,4.30
2017,12,19,00,21,4.30
2017,12,19,00,22,4.30
2017,12,19,00,23,4.30
2017,12,19,00,24,4.30
2017,12,19,00,25,4.30
2017,12,19,00,26,4.30
2017,12,19,00,27,4.30
2017,12,19,00,28,4.30
2017,12,19,00,29,4.30
2017,12,19,00,30,4.30
2017,12,19,00,31,4.30
2017,12,19,00,32,4.20
2017,12,19,00,33,4.20
2017,12,19,00,34,4.20
2017,12,19,00,35,4.20
2017,12,19,00,36,4.20
2017,12,19,00,37,4.20
2017,12,19,00,38,4.20
2017,12,19,00,39,4.20
2017,12,19,00,40,4.20
2017,12,19,00,41,4.20
2017,12,19,00,42,4.20
2017,12,19,00,43,4.20
2017,12,19,00,44,4.20
2017,12,19,00,45,4.20
2017,12,19,00,46,4.20
2017,12,19,00,47,4.20
2017,12,19,00,48,4.20
2017,12,19,00,49,4.20
2017,12,19,00,50,4.20
2017,12,19,00,51,4.20
2017,12,19,00,52,4.20
2017,12,19,00,53,4.20
2017,12,19,00,54,4.20
2017,12,19,00,55,4.20
2017,12,19,00,56,4.10
2017,12,19,00,57,4.10
2017,12,19,00,58,4.10
2017,12,19,00,59,4.10
2017,12,19,01,00,4.10
2017,12,19,01,01,4.10
2017,12,19,01,02,4.10
2017,12,19,01,03,4.10
2017,12,19,01,04,4.10
2017,12,19,01,05,4.10
2017,12,19,01,06,4.10
2017,12,19,01,07,4.10
2017,12,19,01,08,4.10
2017,12,19,01,09,4.10
2017,12,19,01,10,4.10
2017,12,19,01,11,4.10
2017,12,19,01,12,4.10
2017,12,19,01,13,4.10
2017,12,19,01,14,4.10
2017,12,19,01,15,4.10
2017,12,19,01,16,4.10
2017,12,19,01,17,4.10
2017,12,19,01,18,4.10
2017,12,19,01,19,4.00
2017,12,19,01,20,4.00
2017,12,19,01,21,4.00
2017,12,19,01,22,4.00
2017,12,19,01,23,4.00
2017,12,19,01,24,4.00
2017,12,19,01,25,4.00
2017,12,19,01,26,4.00
2017,12,19,01,27,4.00
2017,12,19,01,28,4.00
2017,12,19,01,29,4.00
2017,12,19,01,30,4.00
2017,12,19,01,31,4.00
2017,12,19,01,32,4.00
2017,12,19,01,33,4.00
2017,12,19,01,34,3.90
2017,12,19,01,35,3.90
2017,12,19,01,36,3.90
2017,12,19,01,37,3.90
2017,12,19,01,38,3.80
2017,12,19,01,39,3.80
2017,12,19,01,40,3.80
2017,12,19,01,41,3.80
2017,12,19,01,42,3.80
2017,12,19,01,43,3.80
2017,12,19,01,44,3.80
2017,12,19,01,45,3.80
2017,12,19,01,46,3.80
2017,12,19,01,47,3.80
2017,12,19,01,48,3.80
2017,12,19,10,35,1.50
2017,12,19,10,36,1.60
2017,12,19,10,37,1.60
2017,12,19,10,38,1.60
2017,12,19,10,39,1.60
2017,12,19,10,40,1.60
2017,12,19,10,42,1.60
2017,12,19,10,43,1.60
2017,12,19,10,44,1.60
2017,12,19,10,45,1.60
2017,12,19,10,46,1.60
2017,12,19,10,47,1.60
2017,12,19,10,48,1.60
2017,12,19,10,49,1.60
2017,12,19,10,50,1.60
2017,12,19,10,51,1.60
2017,12,19,10,52,1.60
2017,12,19,10,53,1.60
2017,12,19,10,54,1.60
2017,12,19,10,55,1.60
2017,12,19,10,56,1.60
2017,12,19,10,57,1.60
2017,12,19,10,58,1.60
2017,12,19,10,59,1.60
2017,12,19,11,00,1.60
2017,12,19,11,01,1.60
2017,12,19,11,02,1.60
2017,12,19,11,03,1.60
2017,12,19,11,04,1.60
2017,12,19,11,05,1.60
2017,12,19,11,06,1.60
2017,12,19,11,07,1.60
2017,12,19,11,08,1.60
2017,12,19,11,09,1.60
2017,12,19,11,10,1.70
2017,12,19,11,11,1.70
2017,12,19,11,12,1.70
2017,12,19,11,13,1.70
2017,12,19,11,14,1.70
2017,12,19,11,15,1.70
2017,12,19,11,16,1.70
2017,12,19,11,17,1.70
2017,12,19,11,18,1.70
2017,12,19,11,19,1.70
2017,12,19,11,20,1.70
2017,12,19,11,21,1.70
2017,12,19,11,22,1.80
2017,12,19,11,23,1.80
2017,12,19,11,24,1.80
2017,12,19,11,25,1.80
2017,12,19,11,26,1.80
2017,12,19,11,27,1.80
2017,12,19,11,28,1.80
2017,12,19,11,29,1.80
2017,12,19,11,30,1.80
2017,12,19,11,31,1.90
2017,12,19,11,32,1.90
2017,12,19,11,33,1.90
2017,12,19,11,34,1.90
2017,12,19,11,35,1.90
2017,12,19,11,36,1.90
2017,12,19,11,37,1.90
2017,12,19,11,38,1.90
2017,12,19,11,39,1.90
2017,12,19,11,40,1.90
2017,12,19,11,41,1.90
2017,12,19,11,42,1.90
2017,12,19,11,43,1.90
2017,12,19,11,44,1.90
2017,12,19,11,45,1.90
2017,12,19,11,46,1.90
2017,12,19,11,47,1.90
2017,12,19,11,48,1.90
2017,12,19,11,49,1.90
2017,12,19,11,50,1.90
2017,12,19,11,51,2.00
2017,12,19,11,52,2.00
2017,12,19,11,53,2.00
2017,12,19,11,54,2.00
2017,12,19,11,55,2.00
2017,12,19,11,56,2.00
2017,12,19,11,57,2.00
2017,12,19,11,58,2.00
2017,12,19,11,59,2.00
2017,12,19,12,00,2.00
2017,12,19,12,01,2.10
2017,12,19,12,02,2.00
2017,12,19,12,03,2.00
2017,12,19,12,04,2.00
2017,12,19,12,05,2.10
2017,12,19,12,06,2.10
2017,12,19,12,07,2.10
2017,12,19,12,08,2.10
2017,12,19,12,09,2.10
2017,12,19,12,10,2.10
2017,12,19,12,11,2.10
2017,12,19,12,12,2.10
2017,12,19,12,13,2.10
2017,12,19,12,14,2.10
2017,12,19,12,15,2.10
2017,12,19,12,16,2.10
2017,12,19,12,17,2.10
2017,12,19,12,18,2.10
2017,12,19,12,19,2.20
2017,12,19,12,20,2.20
2017,12,19,12,21,2.20
2017,12,19,12,22,2.20
2017,12,19,12,23,2.20
2017,12,19,12,24,2.20
2017,12,19,12,25,2.20
2017,12,19,12,26,2.20
2017,12,19,12,27,2.20
2017,12,19,12,28,2.20
2017,12,19,12,29,2.20
2017,12,19,12,30,2.20
2017,12,19,12,31,2.20
2017,12,19,12,32,2.20
2017,12,19,12,33,2.20
2017,12,19,12,34,2.20
2017,12,19,12,35,2.30
2017,12,19,12,36,2.30
2017,12,19,12,37,2.30
2017,12,19,12,38,2.30
2017,12,19,12,39,2.30
2017,12,19,12,40,2.30
2017,12,19,12,41,2.30
2017,12,19,12,42,2.30
2017,12,19,12,43,2.30
2017,12,19,12,44,2.30
2017,12,19,12,45,2.30
2017,12,19,12,46,2.30
2017,12,19,12,47,2.30
2017,12,19,12,48,2.30
2017,12,19,12,49,2.30
2017,12,19,12,50,2.30
2017,12,19,12,51,2.40
2017,12,19,12,52,2.40
2017,12,19,12,53,2.40
2017,12,19,12,54,2.40
2017,12,19,12,55,2.40
2017,12,19,12,56,2.40
2017,12,19,12,57,2.40
2017,12,19,12,58,2.40
2017,12,19,12,59,2.40
2017,12,19,13,00,2.40
2017,12,19,13,01,2.40
2017,12,19,13,02,2.40
2017,12,19,13,03,2.40
2017,12,19,13,04,2.40
2017,12,19,13,05,2.40
2017,12,19,13,06,2.40
2017,12,19,13,07,2.40
2017,12,19,13,08,2.40
2017,12,19,13,09,2.40
2017,12,19,13,10,2.40
2017,12,19,13,11,2.40
2017,12,19,13,12,2.30
2017,12,19,13,13,2.30
2017,12,19,13,14,2.30
2017,12,19,13,15,2.30
2017,12,19,13,16,2.30
2017,12,19,13,17,2.30
2017,12,19,13,18,2.30
2017,12,19,13,19,2.20
2017,12,19,13,20,2.20
2017,12,19,13,21,2.20
2017,12,19,13,22,2.20
2017,12,19,13,23,2.20
2017,12,19,13,24,2.20
2017,12,19,13,25,2.20
2017,12,19,13,26,2.20
2017,12,19,13,27,2.20
2017,12,19,13,28,2.20
2017,12,19,13,29,2.20
2017,12,19,13,30,2.20
2017,12,19,13,31,2.20
2017,12,19,13,32,2.20
2017,12,19,13,33,2.20
2017,12,19,13,34,2.20
2017,12,19,13,35,2.20
2017,12,19,13,36,2.20
2017,12,19,13,37,2.20
2017,12,19,13,38,2.20
2017,12,19,13,39,2.20
2017,12,19,13,40,2.20
2017,12,19,13,41,2.20
2017,12,19,13,42,2.20
2017,12,19,13,43,2.20
2017,12,19,13,44,2.20
2017,12,19,13,45,2.20
2017,12,19,13,46,2.20
2017,12,19,13,47,2.20
2017,12,19,13,48,2.10
2017,12,19,13,49,2.10
2017,12,19,13,50,2.10
2017,12,19,13,51,2.10
2017,12,19,13,52,2.10
2017,12,19,13,53,2.10
2017,12,19,13,54,2.10
2017,12,19,13,55,2.10
2017,12,19,13,56,2.10
2017,12,19,13,57,2.10
2017,12,19,13,58,2.10
2017,12,19,13,59,2.10
2017,12,19,14,00,2.10
2017,12,19,14,01,2.10
2017,12,19,14,02,2.10
2017,12,19,14,03,2.10
2017,12,19,14,04,2.10
2017,12,19,14,05,2.10
2017,12,19,14,06,2.10
2017,12,19,14,07,2.10
2017,12,19,14,08,2.10
2017,12,19,14,09,2.10
2017,12,19,14,10,2.10
2017,12,19,14,11,2.20
2017,12,19,14,12,2.20
2017,12,19,14,13,2.20
2017,12,19,14,14,2.20
2017,12,19,14,15,2.30
2017,12,19,14,16,2.30
2017,12,19,14,17,2.30
2017,12,19,14,18,2.30
2017,12,19,14,19,2.30
2017,12,19,14,20,2.40
2017,12,19,14,21,2.40
2017,12,19,14,22,2.40
2017,12,19,14,23,2.40
2017,12,19,14,24,2.40
2017,12,19,14,25,2.40
2017,12,19,14,26,2.50
2017,12,19,14,27,2.40
2017,12,19,14,28,2.50
2017,12,19,14,29,2.50
2017,12,19,14,30,2.50
2017,12,19,14,31,2.50
2017,12,19,14,32,2.50
2017,12,19,14,33,2.50
2017,12,19,14,34,2.50
2017,12,19,14,35,2.50
2017,12,19,14,36,2.50
2017,12,19,14,37,2.40
2017,12,19,14,38,2.40
2017,12,19,14,39,2.40
2017,12,19,14,40,2.40
2017,12,19,14,41,2.40
2017,12,19,14,42,2.40
2017,12,19,14,43,2.40
2017,12,19,14,44,2.40
2017,12,19,14,45,2.40
2017,12,19,14,46,2.40
2017,12,19,14,47,2.40
2017,12,19,14,48,2.40
2017,12,19,14,49,2.40
2017,12,19,14,50,2.40
2017,12,19,14,51,2.40
2017,12,19,14,52,2.40
2017,12,19,14,53,2.40
2017,12,19,14,54,2.40
2017,12,19,14,55,2.40
2017,12,19,14,56,2.30
2017,12,19,14,57,2.30
2017,12,19,14,58,2.30
2017,12,19,14,59,2.30
2017,12,19,15,00,2.30
2017,12,19,15,01,2.30
2017,12,19,15,02,2.20
2017,12,19,15,03,2.20
2017,12,19,15,04,2.20
2017,12,19,15,05,2.20
2017,12,19,15,06,2.20
2017,12,19,15,07,2.20
2017,12,19,15,08,2.20
2017,12,19,15,09,2.20
2017,12,19,15,10,2.20
2017,12,19,15,11,2.20
2017,12,19,15,12,2.20
2017,12,19,15,13,2.20
2017,12,19,15,14,2.20
2017,12,19,15,15,2.20
2017,12,19,15,16,2.20
2017,12,19,15,17,2.20
2017,12,19,15,18,2.20
2017,12,19,15,19,2.20
2017,12,19,15,20,2.20
2017,12,19,15,21,2.20
2017,12,19,15,22,2.20
2017,12,19,15,23,2.20
2017,12,19,15,24,2.20
2017,12,19,15,25,2.10
2017,12,19,15,26,2.10
2017,12,19,15,27,2.10
2017,12,19,15,28,2.10
2017,12,19,15,29,2.10
2017,12,19,15,30,2.10
2017,12,19,15,31,2.10
2017,12,19,15,32,2.10
2017,12,19,15,33,2.10
2017,12,19,15,34,2.10
2017,12,19,15,35,2.10
2017,12,19,15,36,2.10
2017,12,19,15,37,2.10
2017,12,19,15,38,2.10
2017,12,19,15,39,2.10
2017,12,19,15,40,2.10
2017,12,19,15,41,2.10
2017,12,19,15,42,2.10
2017,12,19,15,43,2.10
2017,12,19,15,44,2.00
2017,12,19,15,45,2.00
2017,12,19,15,46,2.00
2017,12,19,15,47,2.00
2017,12,19,15,48,2.00
2017,12,19,15,49,2.00
2017,12,19,15,50,2.00
2017,12,19,15,51,2.00
2017,12,19,15,52,2.00
2017,12,19,15,53,2.00
2017,12,19,15,54,2.00
2017,12,19,15,55,2.00
2017,12,19,15,56,1.90
2017,12,19,15,57,1.90
2017,12,19,15,58,1.90
2017,12,19,15,59,1.90
2017,12,19,16,00,1.90
2017,12,19,16,01,1.90
2017,12,19,16,02,1.90
2017,12,19,16,03,1.80
2017,12,19,16,04,1.80
2017,12,19,16,05,1.80
2017,12,19,16,06,1.80
2017,12,19,16,07,1.80
2017,12,19,16,08,1.80
2017,12,19,16,09,1.80
2017,12,19,16,10,1.80
2017,12,19,16,11,1.80
2017,12,19,16,12,1.80
2017,12,19,16,13,1.80
2017,12,19,16,14,1.80
2017,12,19,16,15,1.80
2017,12,19,16,16,1.80
2017,12,19,16,17,1.70
2017,12,19,16,18,1.70
2017,12,19,16,19,1.70
2017,12,19,16,20,1.70
2017,12,19,16,21,1.70
2017,12,19,16,22,1.70
2017,12,19,16,23,1.70
2017,12,19,16,24,1.70
2017,12,19,16,25,1.70
2017,12,19,16,26,1.70
2017,12,19,16,27,1.70
2017,12,19,16,28,1.70
2017,12,19,16,29,1.70
2017,12,19,16,30,1.70
2017,12,19,16,31,1.70
2017,12,19,16,32,1.70
2017,12,19,16,33,1.70
2017,12,19,16,34,1.70
2017,12,19,16,35,1.70
2017,12,19,16,36,1.70
2017,12,19,16,37,1.70
2017,12,19,16,38,1.70
2017,12,19,16,39,1.70
2017,12,19,16,40,1.70
2017,12,19,16,41,1.70
2017,12,19,16,42,1.70
2017,12,19,16,43,1.70
2017,12,19,16,44,1.70
2017,12,19,16,45,1.70
2017,12,19,16,46,1.70
2017,12,19,16,47,1.70
2017,12,19,16,48,1.70
2017,12,19,16,49,1.70
2017,12,19,16,50,1.70
2017,12,19,16,51,1.70
2017,12,19,16,52,1.70
2017,12,19,16,53,1.70
2017,12,19,16,54,1.70
2017,12,19,16,55,1.70
2017,12,19,16,56,1.70
2017,12,19,16,57,1.70
2017,12,19,16,58,1.70
2017,12,19,16,59,1.70
2017,12,19,17,00,1.70
2017,12,19,17,01,1.70
2017,12,19,17,02,1.70
2017,12,19,17,03,1.70
2017,12,19,17,04,1.70
2017,12,19,17,05,1.70
2017,12,19,17,06,1.70
2017,12,19,17,07,1.70
2017,12,19,17,08,1.70
2017,12,19,17,09,1.70
2017,12,19,17,10,1.70
2017,12,19,17,11,1.70
2017,12,19,17,12,1.70
2017,12,19,17,13,1.70
2017,12,19,17,14,1.70
2017,12,19,17,15,1.70
2017,12,19,17,16,1.70
2017,12,19,17,17,1.70
2017,12,19,17,18,1.60
2017,12,19,17,19,1.60
2017,12,19,17,20,1.60
2017,12,19,17,21,1.60
2017,12,19,17,22,1.60
2017,12,19,17,23,1.60
2017,12,19,17,24,1.60
2017,12,19,17,25,1.60
2017,12,19,17,26,1.60
2017,12,19,17,27,1.60
2017,12,19,17,28,1.60
2017,12,19,17,29,1.60
2017,12,19,17,30,1.60
2017,12,19,17,31,1.60
2017,12,19,17,32,1.60
2017,12,19,17,33,1.60
2017,12,19,17,34,1.60
2017,12,19,17,35,1.60
2017,12,19,17,36,1.70
2017,12,19,17,37,1.70
2017,12,19,17,38,1.60
2017,12,19,17,39,1.60
2017,12,19,17,40,1.70
2017,12,19,17,41,1.60
2017,12,19,17,42,1.60
2017,12,19,17,43,1.60
2017,12,19,17,44,1.60
2017,12,19,17,45,1.60
2017,12,19,17,46,1.60
2017,12,19,17,47,1.60
2017,12,19,17,48,1.60
2017,12,19,17,49,1.60
2017,12,19,17,50,1.60
2017,12,19,17,51,1.60
2017,12,19,17,52,1.60
2017,12,19,17,53,1.60
2017,12,19,17,54,1.60
2017,12,19,17,55,1.60
2017,12,19,17,56,1.60
2017,12,19,17,57,1.60
2017,12,19,17,58,1.60
2017,12,19,17,59,1.60
2017,12,19,18,00,1.60
2017,12,19,18,01,1.60
2017,12,19,18,02,1.60
2017,12,19,18,03,1.60
2017,12,19,18,04,1.60
2017,12,19,18,05,1.60
2017,12,19,18,06,1.60
2017,12,19,18,07,1.60
2017,12,19,18,08,1.60
2017,12,19,18,09,1.60
2017,12,19,18,10,1.60
2017,12,19,18,11,1.60
2017,12,19,18,12,1.60
2017,12,19,18,13,1.60
2017,12,19,18,14,1.60
2017,12,19,18,15,1.60
2017,12,19,18,16,1.60
2017,12,19,18,17,1.60
2017,12,19,18,18,1.60
2017,12,19,18,19,1.60
2017,12,19,18,20,1.60
2017,12,19,18,21,1.60
2017,12,19,18,22,1.60
2017,12,19,18,23,1.60
2017,12,19,18,24,1.60
2017,12,19,18,25,1.60
2017,12,19,18,26,1.60
2017,12,19,18,27,1.60
2017,12,19,18,28,1.60
2017,12,19,18,29,1.60
2017,12,19,18,30,1.60
2017,12,19,18,31,1.60
2017,12,19,18,32,1.60
2017,12,19,18,33,1.60
2017,12,19,18,34,1.60
2017,12,19,18,35,1.60
2017,12,19,18,36,1.60
2017,12,19,18,37,1.60
2017,12,19,18,38,1.60
2017,12,19,18,39,1.50
2017,12,19,18,40,1.60
2017,12,19,18,41,1.60
2017,12,19,18,42,1.60
2017,12,19,18,43,1.50
2017,12,19,18,44,1.50
2017,12,19,18,45,1.60
2017,12,19,18,46,1.50
2017,12,19,18,47,1.50
2017,12,19,18,48,1.50
2017,12,19,18,49,1.50
2017,12,19,18,50,1.50
2017,12,19,18,51,1.50
2017,12,19,18,52,1.50
2017,12,19,18,53,1.50
2017,12,19,18,54,1.50
2017,12,19,18,55,1.50
2017,12,19,18,56,1.50
2017,12,19,18,57,1.50
2017,12,19,18,58,1.40
2017,12,19,18,59,1.40
2017,12,19,19,00,1.40
2017,12,19,19,01,1.40
2017,12,19,19,02,1.40
2017,12,19,19,03,1.40
2017,12,19,19,04,1.40
2017,12,19,19,05,1.40
2017,12,19,19,06,1.40
2017,12,19,19,07,1.40
2017,12,19,19,08,1.40
2017,12,19,19,09,1.40
2017,12,19,19,10,1.40
2017,12,19,19,11,1.40
2017,12,19,19,12,1.40
2017,12,19,19,13,1.40
2017,12,19,19,14,1.40
2017,12,19,19,15,1.40
2017,12,19,19,16,1.40
2017,12,19,19,17,1.40
2017,12,19,19,18,1.30
2017,12,19,19,19,1.30
2017,12,19,19,20,1.30
2017,12,19,19,21,1.30
2017,12,19,19,22,1.30
2017,12,19,19,23,1.30
2017,12,19,19,24,1.30
2017,12,19,19,25,1.30
2017,12,19,19,26,1.30
2017,12,19,19,27,1.30
2017,12,19,19,28,1.30
2017,12,19,19,29,1.30
2017,12,19,19,30,1.30
2017,12,19,19,31,1.30
2017,12,19,19,32,1.30
2017,12,19,19,33,1.30
2017,12,19,19,34,1.30
2017,12,19,19,35,1.30
2017,12,19,19,36,1.30
2017,12,19,19,37,1.30
2017,12,19,19,38,1.30
2017,12,19,19,39,1.30
2017,12,19,19,40,1.30
2017,12,19,19,41,1.30
2017,12,19,19,42,1.30
2017,12,19,19,43,1.30
2017,12,19,19,44,1.30
2017,12,19,19,45,1.30
2017,12,19,19,46,1.30
2017,12,19,19,47,1.30
2017,12,19,19,48,1.30
2017,12,19,19,49,1.30
2017,12,19,19,50,1.30
2017,12,19,19,51,1.30
2017,12,19,19,52,1.30
2017,12,19,19,53,1.30
2017,12,19,19,54,1.30
2017,12,19,19,55,1.30
2017,12,19,19,56,1.30
2017,12,19,19,57,1.30
2017,12,19,19,58,1.30
2017,12,19,19,59,1.30
2017,12,19,20,00,1.30
2017,12,19,20,01,1.30
2017,12,19,20,02,1.30
2017,12,19,20,03,1.30
2017,12,19,20,04,1.30
2017,12,19,20,05,1.30
2017,12,19,20,06,1.30
2017,12,19,20,07,1.30
2017,12,19,20,08,1.30
2017,12,19,20,09,1.30
2017,12,19,20,10,1.30
2017,12,19,20,11,1.30
2017,12,19,20,12,1.30
2017,12,19,20,13,1.30
2017,12,19,20,14,1.30
2017,12,19,20,15,1.30
2017,12,19,20,16,1.30
2017,12,19,20,17,1.40
2017,12,19,20,18,1.40
2017,12,19,20,19,1.40
2017,12,19,20,20,1.50
2017,12,19,20,21,1.50
2017,12,19,20,22,1.50
2017,12,19,20,23,1.60
2017,12,19,20,24,1.60
2017,12,19,20,25,1.60
2017,12,19,20,26,1.60
2017,12,19,20,27,1.60
2017,12,19,20,28,1.60
2017,12,19,20,29,1.60
2017,12,19,20,30,1.60
2017,12,19,20,31,1.60
2017,12,19,20,32,1.60
2017,12,19,20,33,1.60
2017,12,19,20,34,1.60
2017,12,19,20,35,1.60
2017,12,19,20,36,1.60
2017,12,19,20,37,1.60
2017,12,19,20,38,1.60
2017,12,19,20,39,1.60
2017,12,19,20,40,1.70
2017,12,19,20,41,1.70
2017,12,19,20,42,1.70
2017,12,19,20,43,1.70
2017,12,19,20,44,1.70
2017,12,19,20,45,1.70
2017,12,19,20,46,1.70
2017,12,19,20,47,1.70
2017,12,19,20,48,1.70
2017,12,19,20,49,1.70
2017,12,19,20,50,1.70
2017,12,19,20,51,1.70
2017,12,19,20,52,1.70
2017,12,19,20,53,1.70
2017,12,19,20,54,1.70
2017,12,19,20,55,1.70
2017,12,19,20,56,1.70
2017,12,19,20,57,1.70
2017,12,19,20,58,1.70
2017,12,19,20,59,1.70
2017,12,19,21,00,1.80
2017,12,19,21,01,1.80
2017,12,19,21,02,1.80
2017,12,19,21,03,1.80
2017,12,19,21,04,1.80
2017,12,19,21,05,1.80
2017,12,19,21,06,1.80
2017,12,19,21,07,1.90
2017,12,19,21,08,1.90
2017,12,19,21,09,1.90
2017,12,19,21,10,1.90
2017,12,19,21,11,1.90
2017,12,19,21,12,1.90
2017,12,19,21,13,1.90
2017,12,19,21,14,1.90
2017,12,19,21,15,1.90
2017,12,19,21,16,1.90
2017,12,19,21,17,1.90
2017,12,19,21,18,1.90
2017,12,19,21,19,1.90
2017,12,19,21,20,1.90
2017,12,19,21,21,1.90
2017,12,19,21,22,1.90
2017,12,19,21,23,1.90
2017,12,19,21,24,2.00
2017,12,19,21,25,2.00
2017,12,19,21,26,2.00
2017,12,19,21,27,2.00
2017,12,19,21,28,2.00
2017,12,19,21,29,2.10
2017,12,19,21,30,2.10
2017,12,19,21,31,2.10
2017,12,19,21,32,2.10
2017,12,19,21,33,2.10
2017,12,19,21,34,2.00
2017,12,19,21,35,2.00
2017,12,19,21,36,2.00
2017,12,19,21,37,2.10
2017,12,19,21,38,2.10
2017,12,19,21,39,2.10
2017,12,19,21,40,2.10
2017,12,19,21,41,2.10
2017,12,19,21,42,2.10
2017,12,19,21,43,2.10
2017,12,19,21,44,2.10
2017,12,19,21,45,2.10
2017,12,19,21,46,2.10
2017,12,19,21,47,2.10
2017,12,19,21,48,2.10
2017,12,19,21,49,2.10
2017,12,19,21,50,2.10
2017,12,19,21,51,2.10
2017,12,19,21,52,2.10
2017,12,19,21,53,2.10
2017,12,19,21,54,2.10
2017,12,19,21,55,2.10
2017,12,19,21,56,2.10
2017,12,19,21,57,2.10
2017,12,19,21,58,2.10
2017,12,19,21,59,2.10
2017,12,19,22,00,2.10
2017,12,19,22,01,2.10
2017,12,19,22,02,2.10
2017,12,19,22,03,2.10
2017,12,19,22,04,2.10
2017,12,19,22,05,2.10
2017,12,19,22,06,2.20
2017,12,19,22,07,2.20
2017,12,19,22,08,2.20
2017,12,19,22,09,2.20
2017,12,19,22,10,2.20
2017,12,19,22,11,2.20
2017,12,19,22,12,2.20
2017,12,19,22,13,2.20
2017,12,19,22,14,2.20
2017,12,19,22,15,2.20
2017,12,19,22,16,2.20
2017,12,19,22,17,2.20
2017,12,19,22,18,2.20
2017,12,19,22,19,2.20
2017,12,19,22,20,2.20
2017,12,19,22,21,2.20
2017,12,19,22,22,2.20
2017,12,19,22,23,2.20
2017,12,19,22,24,2.20
2017,12,19,22,25,2.20
2017,12,19,22,26,2.20
2017,12,19,22,27,2.20
2017,12,19,22,28,2.20
2017,12,19,22,29,2.20
2017,12,19,22,30,2.20
2017,12,19,22,31,2.20
2017,12,19,22,32,2.20
2017,12,19,22,33,2.20
2017,12,19,22,34,2.20
2017,12,19,22,35,2.20
2017,12,19,22,36,2.20
2017,12,19,22,37,2.20
2017,12,19,22,38,2.10
2017,12,19,22,39,2.10
2017,12,19,22,40,2.10
2017,12,19,22,41,2.10
2017,12,19,22,42,2.10
2017,12,19,22,43,2.10
2017,12,19,22,44,2.10
2017,12,19,22,45,2.10
2017,12,19,22,46,2.10
2017,12,19,22,47,2.00
2017,12,19,22,48,2.00
2017,12,19,22,49,2.00
2017,12,19,22,50,2.00
2017,12,19,22,51,2.00
2017,12,19,22,52,2.00
2017,12,19,22,53,2.00
2017,12,19,22,54,2.00
2017,12,19,22,55,1.90
2017,12,19,22,56,1.90
2017,12,19,22,57,1.90
2017,12,19,22,58,1.90
2017,12,19,22,59,1.90
2017,12,19,23,00,1.90
2017,12,19,23,01,1.90
2017,12,19,23,02,1.90
2017,12,19,23,03,1.90
2017,12,19,23,04,1.90
2017,12,19,23,05,1.90
2017,12,19,23,06,1.90
2017,12,19,23,07,1.90
2017,12,19,23,08,1.90
2017,12,19,23,09,1.80
2017,12,19,23,10,1.80
2017,12,19,23,11,1.80
2017,12,19,23,12,1.80
2017,12,19,23,13,1.80
2017,12,19,23,14,1.80
2017,12,19,23,15,1.80
2017,12,19,23,16,1.80
2017,12,19,23,17,1.80
2017,12,19,23,18,1.80
2017,12,19,23,19,1.80
2017,12,19,23,20,1.80
2017,12,19,23,21,1.80
2017,12,19,23,22,1.80
2017,12,19,23,23,1.80
2017,12,19,23,24,1.80
2017,12,19,23,25,1.80
2017,12,19,23,26,1.80
2017,12,19,23,27,1.80
2017,12,19,23,28,1.80
2017,12,19,23,29,1.80
2017,12,19,23,30,1.80
2017,12,19,23,31,1.80
2017,12,19,23,32,1.80
2017,12,19,23,33,1.80
2017,12,19,23,34,1.80
2017,12,19,23,35,1.80
2017,12,19,23,36,1.80
2017,12,19,23,37,1.80
2017,12,19,23,38,1.80
2017,12,19,23,39,1.80
2017,12,19,23,40,1.80
2017,12,19,23,41,1.80
2017,12,19,23,42,1.80
2017,12,19,23,43,1.70
2017,12,19,23,44,1.70
2017,12,19,23,45,1.70
2017,12,19,23,46,1.70
2017,12,19,23,47,1.70
2017,12,19,23,48,1.60
2017,12,19,23,49,1.60
2017,12,19,23,50,1.60
2017,12,19,23,51,1.50
2017,12,19,23,52,1.50
2017,12,19,23,53,1.40
2017,12,19,23,54,1.40
2017,12,19,23,55,1.40
2017,12,19,23,56,1.30
2017,12,19,23,57,1.30
2017,12,19,23,58,1.30
2017,12,19,23,59,1.30
